sat.trackr.live / text

‹ back to catalog

STARLINK-2514

NORAD 48331 · 2021-036BH

PAYLOAD ACTIVE UNKNOWN

§ Identity

Operator
Country
US
Launch date
2021-04-29
Launch site
AFETR
Launch vehicle
Mass (kg)
RCS (m²)

Purposes: comms

External: N2YO · Heavens-Above · Gunter

§ Orbital elements

Epoch: 2026-09-15T09:09:09.825408Z

Period
93.48 min
Inclination
53.1547°
Eccentricity
0.0000904
Mean motion
15.40515216 rev/d
Perigee alt
444.0 km
Apogee alt
445.2 km
Semi-major
6,822.7 km
B*
9.7057e-4
RAAN
295.1996°
Arg perigee
342.5132°
Mean anomaly
17.5842°
Rev number
29,715

§ Raw data

STARLINK-25141 48331U 21036BH  26258.38136372  .00039790  00000+0  97057-3 0  99952 48331  53.1547 295.1996 0000904 342.5132  17.5842 15.40515216297151

JSON: /api/v1/satellites/48331 · /tle

For live sub-satellite position, see the globe view (requires WebGL).

§ Visibility from observer

Set your observer location to see the next 7 days of passes ≥ 10°. The values pass through the URL so the page stays shareable.

No JS? Fill the form by hand. The geolocation button needs JavaScript.